• Join FlightAware (Why Join?)
  • Login
  • US Flag 
11:51AM EDT


 

Airport Tracker/Info


-or-


 

Live Flight TrackerFlight Track Log ✈ CPT1940 ✈ 21-Jun-2013 ✈ KBFF - KCPR

Flight Track Log - Related Links

Times and Time Zones

All times are in EDT time to prevent confusion due to time zone crossing. See the CPT1940 flight status page for this flight to view local times or setup timezone preferences in your user account.

Time Position Orientation Groundspeed Altitude Reporting Facility
EDT Latitude Longitude Course Direction KTS MPH feet Rate Location/Type
10:12AM 41.9042 -103.6453 309° West 115 132 5,800  Level Denver Center
10:13AM 41.9292 -103.6811 313° West 117 135 7,100 1,020 Climbing Denver Center
10:14AM 42.0354 -103.8458 311° West  Level FlightAware Approximate
10:14AM 41.9503 -103.7122 312° West 117 135 8,000  Level Denver Center
10:15AM 42.0636 -103.8895 311° West  Level FlightAware Approximate
10:15AM 41.9725 -103.7494 309° West 116 133 8,900  Level Denver Center
10:16AM 42.0919 -103.9334 311° West  Level FlightAware Approximate
10:16AM 41.9931 -103.7811 311° West 116 133 9,600  Level Denver Center
10:17AM 42.0142 -103.8144 310° West 119 137 10,100 240 Climbing Denver Center
10:18AM 42.0442 -103.8603 311° West 135 155 10,100  Level Denver Center
10:19AM 42.0722 -103.9022 312° West 150 173 10,100  Level Denver Center
10:20AM 42.1031 -103.9508 311° West 153 176 10,100  Level Denver Center
10:21AM 42.1297 -103.9931 310° West 153 176 10,100  Level Denver Center
10:22AM 42.1603 -104.0422 310° West 153 176 10,100  Level Denver Center
10:23AM 42.1867 -104.0842 310° West 153 176 10,100  Level Denver Center
10:24AM 42.2183 -104.1331 311° West 154 177 10,100  Level Denver Center
10:25AM 42.2458 -104.1753 311° West 155 178 10,100  Level Denver Center
10:26AM 42.2775 -104.2256 310° West 156 180 10,100  Level Denver Center
10:27AM 42.3044 -104.2689 310° West 157 181 10,100  Level Denver Center
10:28AM 42.3325 -104.3125 311° West 158 182 10,100 -60 Level Denver Center
10:29AM 42.3656 -104.3642 311° West 161 185 10,000 -120 Descending Denver Center
10:30AM 42.3950 -104.4094 311° West 164 189 9,900 -60 Descending Denver Center
10:31AM 42.4264 -104.4617 309° West 162 186 9,900  Level Denver Center
10:32AM 42.4539 -104.5064 310° West 161 185 9,900  Level Denver Center
10:33AM 42.4864 -104.5586 310° West 161 185 9,900  Level Denver Center
10:34AM 42.5147 -104.6036 311° West 162 186 10,000  Climbing Denver Center
10:35AM 42.5336 -104.6547 297° West 160 184 10,000  Level Denver Center
10:36AM 42.5542 -104.7169 294° West 160 184 10,100  Climbing Denver Center
10:37AM 42.5722 -104.7697 295° West 160 184 10,100  Level Denver Center
10:38AM 42.5925 -104.8289 295° West 157 181 10,100 -60 Level Denver Center
10:39AM 42.6094 -104.8811 294° West 157 181 10,000  Descending Denver Center
10:41AM 42.6292 -104.9422 294° West 158 182 10,100  Climbing Denver Center
10:42AM 42.6453 -104.9953 292° West 158 182 10,100 -60 Level Denver Center
10:43AM 42.6653 -105.0569 294° West 160 184 10,000  Descending Denver Center
10:44AM 42.6819 -105.1092 293° West 157 181 10,100  Climbing Denver Center
10:45AM 42.7000 -105.1617 295° West 159 183 10,100  Level Denver Center
10:46AM 42.7203 -105.2236 294° West 160 184 10,100  Level Denver Center
10:47AM 42.7375 -105.2769 294° West 161 185 10,100  Level Denver Center
10:48AM 42.7575 -105.3386 294° West 160 184 10,100  Level Denver Center
10:49AM 42.7744 -105.3911 294° West 159 183 10,100  Level Denver Center
10:50AM 42.7953 -105.4531 295° West 160 184 10,100  Level Denver Center
10:51AM 42.8122 -105.5067 293° West 161 185 10,100  Level Denver Center
10:52AM 42.8331 -105.5689 295° West 161 185 10,100  Level Denver Center
10:53AM 42.8506 -105.6206 295° West 159 183 10,100  Level Denver Center
10:54AM 42.8708 -105.6828 294° West 160 184 10,100  Level Denver Center
10:55AM 42.8878 -105.7378 293° West 162 186 10,100  Level Denver Center
10:56AM 42.9086 -105.8025 294° West 165 190 10,100  Level Denver Center
10:57AM 42.9233 -105.8572 290° West 164 189 10,100  Level Denver Center
10:58AM 42.9189 -105.9242 265° West 159 183 10,100  Level Denver Center
10:59AM 42.9175 -105.9808 268° West 157 181 10,100 -120 Level Denver Center
11:00AM 42.9164 -106.0375 268° West 157 181 9,900 -540 Descending Denver Center
11:01AM 42.9150 -106.1061 268° West 160 184 9,000 -780 Descending Denver Center
11:02AM 42.9142 -106.1669 269° West 164 189 8,300 -540 Descending Denver Center
11:03AM 42.9125 -106.2367 268° West 166 191 8,000 -540 Descending Denver Center
11:04AM 42.9122 -106.2950 270° West 163 188 7,200 -540 Descending Denver Center
11:05AM 42.9106 -106.3594 268° West 161 185 6,900 -300 Descending Denver Center
11:07AM 42.9000 -106.4290 270° West  Level FlightAware Approximate
11:14AM 42.9000 -106.4500 270° West  Level FlightAware Approximate
11:15AM 42.9080 -106.4644 270° West  Level Estimated
11:16AM 42.9080 -106.4644 270° West  Level Estimated
11:17AM 42.9080 -106.4644 270° West  Level Estimated